Dubuque, IA

12:42 AM CST on November 13, 2019 (GMT -0600)
Dubuque Regional

Weather History for KDBQ - September, 2019

Change the Weather History Date:

Tuesday, September 10, 2019

  Actual Average Record
Temperature  
Mean Temperature 73 °F 64 °F  
Max Temperature 82 °F 75 °F 97 °F (1895)
Min Temperature 64 °F 54 °F 36 °F (1976)
Degree Days  
Heating Degree Days 0 3  
Month to date heating degree days 20 24  
Since 1 July heating degree days 29 51  
Cooling Degree Days 8 3  
Month to date cooling degree days 22 33  
Year to date cooling degree days 595 609  
Growing Degree Days 23 (Base 50)    
Moisture  
Dew Point 69 °F    
Average Humidity 89    
Maximum Humidity 100    
Minimum Humidity 58    
Precipitation  
Precipitation 0.62 in 0.11 in 1.52 in (2006)
Month to date precipitation 1.54 1.18  
Year to date precipitation 32.67 27.16  
Snow  
Snow 0.00 in 0.00 in - ()
Month to date snowfall 0.0 0.0  
Since 1 July snowfall 0.0 0.0  
Since 1 September snowfall 0.0 0.0  
Snow Depth 0.00 in    
Sea Level Pressure  
Sea Level Pressure 30.01 in    
Wind  
Wind Speed 9 mph ()    
Max Wind Speed 33 mph    
Max Gust Speed 48 mph    
Visibility 8.2 miles    
Events Rain , Thunderstorm    
T = Trace of Precipitation, MM = Missing Value Source: Averaged Metar Reports

Daily Weather History Graph

Daily Weather History Graph

Search for Another Location

Airport or City:

Astronomy

Sep. 10, 2019 Rise Set
Actual Time 6:37 AM CDT 7:21 PM CDT
Civil Twilight 6:08 AM CDT 7:50 PM CDT
Nautical Twilight 5:35 AM CDT 8:23 PM CDT
Astronomical Twilight 5:00 AM CDT 8:58 PM CDT
Moon 6:02 PM CDT (9/10) 2:58 AM CDT (9/10)
Length of Visible Light 13h 41m
Length of Day
12h 44m
Waxing Gibbous, 89% of the Moon is Illuminated
Sep 10
Waxing Gibbous
Sep 13
Full
Sep 21
Last Quarter
Sep 28
New
Oct 5
First Quarter

Hourly Weather History & Observations

Time (CDT) Temp. Heat Index Dew Point Humidity Pressure Visibility Wind Dir Wind Speed Gust Speed Precip Events Conditions
12:00 AM 71.1 °F - 71.1 °F 100% 29.99 in 5.0 mi NNE 13.8 mph - 0.00 in Rain , Thunderstorm Light Rain
12:11 AM 70.0 °F - 69.1 °F 97% 30.00 in 2.5 mi Variable 4.6 mph - 0.02 in Rain , Thunderstorm Heavy Thunderstorms and Rain
12:23 AM 71.1 °F - 68.0 °F 90% 30.03 in 7.0 mi South 19.6 mph 31.1 mph 0.12 in Rain , Thunderstorm Heavy Thunderstorms and Rain
12:30 AM 69.1 °F - 68.0 °F 96% 30.00 in 10.0 mi South 9.2 mph 27.6 mph 0.12 in Rain , Thunderstorm Light Thunderstorms and Rain
12:45 AM 70.0 °F - 68.0 °F 93% 29.98 in 10.0 mi South 6.9 mph - 0.12 in Rain Light Rain
12:53 AM 69.1 °F - 68.0 °F 96% 29.98 in 10.0 mi South 6.9 mph - 0.12 in Rain Light Rain
1:04 AM 69.1 °F - 68.0 °F 96% 29.98 in 10.0 mi South 10.4 mph 17.3 mph 0.00 in Rain , Thunderstorm Light Thunderstorms and Rain
1:25 AM 69.1 °F - 68.0 °F 96% 29.98 in 10.0 mi South 11.5 mph 21.9 mph 0.00 in Rain , Thunderstorm Light Rain
1:32 AM 69.1 °F - 66.9 °F 93% 29.97 in 10.0 mi South 11.5 mph 21.9 mph 0.00 in Rain Light Rain
1:41 AM 69.1 °F - 66.0 °F 90% 29.97 in 10.0 mi South 13.8 mph - 0.00 in Rain , Thunderstorm Light Rain
1:53 AM 69.1 °F - 64.9 °F 87% 29.95 in 10.0 mi South 15.0 mph 23.0 mph 0.00 in Rain , Thunderstorm Light Thunderstorms and Rain
2:05 AM 64.4 °F - 64.4 °F 100% 30.04 in 1.5 mi WSW 24.2 mph 48.3 mph N/A Rain , Thunderstorm Heavy Thunderstorms and Rain
2:11 AM 64.0 °F - 64.0 °F 100% 30.02 in 0.8 mi WSW 9.2 mph 48.3 mph 0.15 in Rain , Thunderstorm Heavy Thunderstorms and Rain
2:20 AM 64.0 °F - 64.0 °F 100% 29.99 in 2.0 mi NNE 6.9 mph - 0.42 in Rain , Thunderstorm Thunderstorms and Rain
2:28 AM 64.0 °F - 64.0 °F 100% 30.02 in 8.0 mi NNE 4.6 mph - 0.43 in Rain , Thunderstorm Light Thunderstorms and Rain
2:53 AM 64.9 °F - - N/A% 29.97 in 10.0 mi ESE 10.4 mph 20.7 mph 0.49 in Rain , Thunderstorm Light Thunderstorms and Rain
3:04 AM 66.0 °F - - N/A% 29.98 in 10.0 mi SE 6.9 mph - 0.00 in Rain , Thunderstorm Light Rain
3:16 AM 66.0 °F - - N/A% 29.98 in 10.0 mi South 4.6 mph - 0.00 in Rain Light Rain
3:53 AM 66.9 °F - - N/A% 29.96 in 10.0 mi SE 8.1 mph - 0.00 in Rain Light Rain
4:53 AM 70.0 °F - 69.1 °F 97% 29.96 in 9.0 mi SSE 12.7 mph - 0.00 in Rain Light Rain
5:53 AM 71.1 °F - 70.0 °F 96% 29.97 in 7.0 mi South 9.2 mph - 0.00 in Rain Light Rain
6:53 AM 71.1 °F - 71.1 °F 100% 29.99 in 3.0 mi SSW 6.9 mph - 0.01 in   Clear
7:53 AM 72.0 °F - 71.1 °F 97% 30.00 in 3.0 mi SW 5.8 mph - N/A   Clear
8:53 AM 73.9 °F - 73.0 °F 97% 30.01 in 5.0 mi SW 6.9 mph - N/A   Clear
9:41 AM 75.9 °F - 73.0 °F 91% 30.02 in 6.0 mi SSW 9.2 mph - N/A   Scattered Clouds
9:53 AM 75.9 °F - 73.9 °F 94% 30.00 in 6.0 mi SSW 9.2 mph - N/A   Mostly Cloudy
10:46 AM 77.0 °F - 72.0 °F 84% 30.03 in 9.0 mi West 13.8 mph - N/A   Mostly Cloudy
10:53 AM 77.0 °F - 71.1 °F 82% 30.01 in 10.0 mi WSW 12.7 mph 18.4 mph N/A   Mostly Cloudy
11:01 AM 77.0 °F - 71.1 °F 82% 30.03 in 10.0 mi WSW 13.8 mph - N/A   Scattered Clouds
11:53 AM 75.9 °F - 66.9 °F 74% 30.04 in 10.0 mi WSW 18.4 mph - N/A   Partly Cloudy
12:53 PM 78.1 °F - 66.9 °F 68% 30.04 in 10.0 mi SW 10.4 mph - N/A   Clear
1:53 PM 80.1 °F 82.3 °F 66.9 °F 64% 30.03 in 10.0 mi WSW 5.8 mph - N/A   Clear
2:53 PM 82.0 °F 84.5 °F 66.9 °F 60% 30.04 in 10.0 mi SW 10.4 mph - N/A   Clear
3:53 PM 80.1 °F 82.9 °F 69.1 °F 69% 30.03 in 10.0 mi SW 8.1 mph - N/A   Clear
4:53 PM 80.1 °F 82.7 °F 68.0 °F 67% 30.03 in 10.0 mi SW 8.1 mph - N/A   Clear
5:53 PM 80.1 °F 82.9 °F 69.1 °F 69% 30.03 in 10.0 mi SSW 9.2 mph - N/A   Clear
6:53 PM 75.9 °F - 70.0 °F 82% 30.03 in 10.0 mi South 3.5 mph - N/A   Clear
7:53 PM 72.0 °F - 69.1 °F 91% 30.04 in 10.0 mi South 5.8 mph - N/A   Mostly Cloudy
8:53 PM 71.1 °F - 69.1 °F 93% 30.04 in 10.0 mi South 3.5 mph - N/A   Mostly Cloudy
9:53 PM 71.1 °F - 68.0 °F 90% 30.05 in 10.0 mi South 5.8 mph - N/A   Scattered Clouds
10:53 PM 70.0 °F - 68.0 °F 93% 30.06 in 10.0 mi South 3.5 mph - N/A   Partly Cloudy
11:53 PM 70.0 °F - 68.0 °F 93% 30.08 in 10.0 mi SSW 3.5 mph - N/A   Clear